M I D A S
Marine Information and Data Acquisition System
Tripno 716 of the Zeeleeuw from 2004-05-13 06:35:09 to 2004-05-13 14:56:05
Back to CruiseResearch ActivitiesStationsMapUnderway DataData graphs

EquipmentUnitsComment
TimeDGPSUTC
LatitudeDGPSDM.mWGS84
LongitudeDGPSDM.mWGS84
TemperatureSBE03/SBE38deg celciusITS90
ConductivitySBE21S/mITS90
SalinitySBE21 Practical Salinity Units
ChlorophylAChelsea fluorimeterg/lCalibrated in Aceton
Missing or incorrect values are displayed as -999
Sea surface data collected by the RV Zeeleeuw from 2004-05-13 06:35:09 to 2004-05-13 14:56:05
Time Latitude Longitude Temperature Conductivity Salinity ChlorophylA
2004-05-13 06:36:18 51°13.603 2°56.067 18.500463 0.122231 0.718843 9.870922
2004-05-13 06:37:17 51°13.576 2°56.113 18.423319 0.122231 0.719032 9.904631
2004-05-13 06:38:17 51°13.536 2°56.186 18.54047 0.122231 0.719019 9.904631
2004-05-13 06:39:17 51°13.538 2°56.239 18.460392 0.122231 0.719007 10.039469
2004-05-13 06:40:18 51°13.543 2°56.234 18.54171 0.122231 0.719019 9.938341
2004-05-13 06:41:17 51°13.525 2°56.239 18.582395 0.122231 0.719007 9.97205
2004-05-13 06:42:17 51°13.556 2°56.159 18.480121 0.122231 0.719132 9.938341
2004-05-13 06:43:17 51°13.611 2°56.012 18.458448 0.122231 0.719132 9.938341
2004-05-13 06:44:17 51°13.685 2°55.851 18.493766 0.122231 0.719208 9.938341
2004-05-13 06:45:17 51°13.771 2°55.698 18.445789 0.122127 0.718568 9.938341
2004-05-13 06:46:17 51°13.884 2°55.602 18.504143 0.122127 0.718619 9.97205
2004-05-13 06:47:17 51°14.007 2°55.53 18.515055 0.122231 0.719308 9.938341
2004-05-13 06:48:20 51°14.141 2°55.412 18.490375 0.122127 0.718669 9.97205
2004-05-13 06:49:28 51°14.297 2°55.182 18.485331 0.122127 0.718707 10.039469
2004-05-13 06:50:25 51°14.426 2°54.936 18.155607 0.122127 0.718681 10.005759
2004-05-13 06:51:28 51°14.604 2°54.716 18.290629 0.122127 0.718694 10.140597
2004-05-13 06:52:31 51°14.795 2°54.521 18.33631 0.122127 0.718782 10.005759
2004-05-13 06:53:31 51°14.984 2°54.351 18.355783 0.122127 0.718795 9.97205
2004-05-13 06:54:31 51°15.187 2°54.218 18.383493 0.122127 0.718418 9.904631
2004-05-13 06:55:37 51°15.409 2°54.076 18.419139 0.122127 0.718619 10.005759
2004-05-13 06:56:37 51°15.611 2°53.947 18.433499 0.122127 0.718732 10.073178
2004-05-13 06:57:37 51°15.815 2°53.82 18.450753 0.122127 0.718669 9.938341
2004-05-13 06:58:37 51°16.024 2°53.709 18.464983 0.122127 0.718556 10.039469
2004-05-13 06:59:37 51°16.235 2°53.596 18.483387 0.122127 0.718581 9.938341
2004-05-13 07:00:37 51°16.445 2°53.482 18.49881 0.122127 0.718707 10.039469
2004-05-13 07:01:37 51°16.653 2°53.367 18.510757 0.122127 0.718744 10.039469
2004-05-13 07:02:37 51°16.862 2°53.25 18.528818 0.122127 0.718845 10.106888
2004-05-13 07:03:37 51°17.07 2°53.141 18.54171 0.122127 0.718883 10.106888
2004-05-13 07:04:37 51°17.289 2°53.07 18.556211 0.122127 0.718857 10.174306
2004-05-13 07:05:37 51°17.51 2°53.154 18.57108 0.122127 0.718908 10.106888
2004-05-13 07:06:37 51°17.715 2°53.336 18.585699 0.122127 0.718971 10.174306
2004-05-13 07:07:37 51°17.92 2°53.519 18.594865 0.122127 0.718996 10.208016
2004-05-13 07:08:37 51°18.128 2°53.697 18.6089 0.122127 0.719008 10.208016
2004-05-13 07:09:37 51°18.33 2°53.88 18.620952 0.122127 0.719021 10.174306
2004-05-13 07:10:37 51°18.51 2°54.122 18.631393 0.122127 0.718958 10.208016
2004-05-13 07:11:37 51°18.665 2°54.411 18.646452 0.122127 0.719008 10.208016
2004-05-13 07:12:37 51°18.808 2°54.715 18.656559 0.122127 0.719046 10.241725
2004-05-13 07:13:37 51°18.954 2°55.015 18.666087 0.122127 0.719096 10.241725
2004-05-13 07:14:37 51°19.1 2°55.314 18.676686 0.122127 0.719071 10.309144
2004-05-13 07:15:37 51°19.242 2°55.619 18.688973 0.122127 0.719134 10.275435
2004-05-13 07:16:37 51°19.377 2°55.934 18.699692 0.122127 0.719096 10.241725
2004-05-13 07:17:37 51°19.506 2°56.256 18.70942 0.122127 0.719134 10.241725
2004-05-13 07:18:37 51°19.636 2°56.578 18.718528 0.122127 0.719096 10.275435
2004-05-13 07:19:37 51°19.766 2°56.901 18.730355 0.122127 0.719172 10.275435
2004-05-13 07:20:37 51°19.893 2°57.221 18.740738 0.122127 0.719147 10.309144
2004-05-13 07:21:35 51°20.019 2°57.534 18.752355 0.122127 0.719147 10.309144
2004-05-13 07:22:37 51°20.153 2°57.868 18.7622 0.122127 0.719159 10.309144
2004-05-13 07:23:39 51°20.286 2°58.204 18.772537 0.122127 0.719197 10.309144
2004-05-13 07:24:39 51°20.41 2°58.538 18.781555 0.122127 0.71921 10.275435
2004-05-13 07:25:39 51°20.533 2°58.876 18.790242 0.122127 0.719197 10.309144
2004-05-13 07:26:39 51°20.658 2°59.211 18.799216 0.122127 0.719248 10.275435
2004-05-13 07:27:43 51°20.788 2°59.569 18.808684 0.122127 0.719273 10.309144
2004-05-13 07:28:43 51°20.912 2°59.905 18.817326 0.122127 0.719298 10.309144
2004-05-13 07:29:43 51°21.035 3°0.24 18.824446 0.122127 0.719298 10.275435
2004-05-13 07:30:43 51°21.158 3°0.575 18.832058 0.122127 0.719348 10.275435
2004-05-13 07:31:43 51°21.282 3°0.909 18.841315 0.122127 0.719374 10.275435
2004-05-13 07:32:43 51°21.406 3°1.241 18.848103 0.122023 0.718809 10.275435
2004-05-13 07:33:43 51°21.568 3°1.522 18.854437 0.122023 0.718771 10.309144
2004-05-13 07:34:43 51°21.742 3°1.78 18.862951 0.122023 0.718784 10.309144
2004-05-13 07:35:43 51°21.916 3°2.04 18.871217 0.122023 0.718847 10.275435
2004-05-13 07:36:43 51°22.088 3°2.303 18.878536 0.122023 0.718834 10.275435
2004-05-13 07:37:43 51°22.261 3°2.564 18.888404 0.122127 0.719525 10.275435
2004-05-13 07:38:43 51°22.441 3°2.807 18.892926 0.122127 0.7195 10.275435
2004-05-13 07:39:43 51°22.62 3°3.05 18.901517 0.122023 0.718935 10.241725
2004-05-13 07:40:43 51°22.8 3°3.294 18.908505 0.122023 0.718935 10.275435
2004-05-13 07:41:42 51°22.974 3°3.536 18.917382 0.122023 0.71896 10.241725
2004-05-13 07:42:43 51°23.157 3°3.785 18.925272 0.122023 0.718985 10.275435
2004-05-13 07:43:43 51°23.348 3°4.003 18.933489 0.122023 0.718998 10.275435
2004-05-13 07:44:43 51°23.55 3°4.199 18.93998 0.122023 0.71901 10.275435
2004-05-13 07:45:43 51°23.756 3°4.382 18.947292 0.122023 0.719036 10.275435
2004-05-13 07:46:42 51°23.958 3°4.564 18.956411 0.122023 0.719086 10.241725
2004-05-13 07:47:43 51°24.17 3°4.756 18.963804 0.122023 0.719111 10.241725
2004-05-13 07:48:42 51°24.371 3°4.939 18.972263 0.122023 0.719162 10.241725
2004-05-13 07:49:43 51°24.577 3°5.129 18.977642 0.122023 0.719162 10.241725
2004-05-13 07:50:43 51°24.78 3°5.315 18.984088 0.122023 0.719174 10.241725
2004-05-13 07:51:43 51°24.984 3°5.499 18.991272 0.122023 0.719212 10.241725
2004-05-13 07:52:43 51°25.182 3°5.703 19.000919 0.122023 0.7193 10.275435
2004-05-13 07:53:43 51°25.365 3°5.944 19.008676 0.122023 0.719275 10.241725
2004-05-13 07:54:43 51°25.529 3°6.221 19.014257 0.122023 0.7193 10.241725
2004-05-13 07:55:42 51°25.656 3°6.538 19.020987 0.122023 0.719338 10.241725
2004-05-13 07:56:48 51°25.804 3°6.885 19.028947 0.122023 0.719363 10.275435
2004-05-13 07:57:45 51°25.935 3°7.182 19.032968 0.122023 0.719363 10.275435
2004-05-13 07:58:48 51°26.08 3°7.512 19.043101 0.122023 0.719426 10.241725
2004-05-13 07:59:47 51°26.217 3°7.818 19.047162 0.121919 0.718786 10.241725
2004-05-13 08:00:48 51°26.33 3°8.072 19.054791 0.122023 0.719489 10.275435
2004-05-13 08:01:47 51°26.392 3°8.18 19.058359 0.121919 0.718861 10.275435
2004-05-13 08:02:48 51°26.41 3°8.259 19.069308 0.122023 0.71959 10.275435
2004-05-13 08:03:47 51°26.417 3°8.327 12.026703 3.867707 32.132626 36.602477
2004-05-13 08:04:47 51°26.433 3°8.43 11.946978 3.741036 32.205572 37.141828
2004-05-13 08:05:47 51°26.448 3°8.529 11.863601 3.766226 32.550941 36.029418
2004-05-13 08:06:48 51°26.463 3°8.618 11.846913 3.763803 32.564695 36.366512
2004-05-13 08:07:48 51°26.477 3°8.696 11.839343 3.769705 32.659467 38.625042
2004-05-13 08:08:47 51°26.494 3°8.77 11.82753 3.776135 32.736707 38.557623
2004-05-13 08:09:47 51°26.512 3°8.844 11.812019 3.768441 32.678354 37.276665
2004-05-13 08:10:48 51°26.532 3°8.914 11.808232 3.754108 32.551736 35.726033
2004-05-13 08:11:48 51°26.553 3°8.985 11.799151 3.762013 32.646697 35.422648
2004-05-13 08:12:47 51°26.577 3°9.06 11.799197 3.764331 32.67048 37.377794
2004-05-13 08:13:48 51°26.604 3°9.137 11.792397 3.761169 32.645467 36.703606
2004-05-13 08:14:47 51°26.634 3°9.209 11.792853 3.763067 32.67072 35.422648
2004-05-13 08:15:48 51°26.665 3°9.275 11.791028 3.74905 32.538736 34.984426
2004-05-13 08:16:47 51°26.697 3°9.337 11.781899 3.773079 32.773759 35.051845
2004-05-13 08:17:47 51°26.733 3°9.4 11.796231 3.773395 32.778207 34.883298
2004-05-13 08:18:48 51°26.77 3°9.465 11.794816 3.773606 32.774687 36.029418
2004-05-13 08:19:48 51°26.808 3°9.531 11.792488 3.772974 32.771351 35.186683
2004-05-13 08:20:47 51°26.845 3°9.598 11.783269 3.772974 32.774129 34.74846
2004-05-13 08:21:48 51°26.882 3°9.67 11.78441 3.772763 32.775565 34.478785
2004-05-13 08:22:48 51°26.918 3°9.738 11.79226 3.773079 32.776538 34.512494
2004-05-13 08:23:48 51°26.951 3°9.805 11.789522 3.772868 32.7745 34.411366
2004-05-13 08:24:48 51°26.983 3°9.871 11.790663 3.772974 32.776214 34.950717
2004-05-13 08:25:48 51°27.011 3°9.937 11.78902 3.772763 32.77626 35.186683
2004-05-13 08:26:48 51°27.041 3°10 11.780439 3.772447 32.777372 34.950717
2004-05-13 08:27:48 51°27.073 3°10.059 11.778476 3.772131 32.775703 35.32152
2004-05-13 08:28:48 51°27.105 3°10.117 11.785368 3.772131 32.773618 36.299093
2004-05-13 08:29:47 51°27.137 3°10.175 11.79226 3.772341 32.772877 35.658614
2004-05-13 08:30:48 51°27.17 3°10.233 11.793721 3.772236 32.769773 36.130546
2004-05-13 08:31:47 51°27.203 3°10.289 11.798467 3.774028 32.785018 35.523777
2004-05-13 08:32:48 51°27.237 3°10.35 11.799425 3.772868 32.77311 34.984426
2004-05-13 08:33:48 51°27.267 3°10.411 11.794086 3.772658 32.773156 36.096836
2004-05-13 08:34:47 51°27.297 3°10.471 11.786464 3.772552 32.773526 34.950717
2004-05-13 08:35:48 51°27.328 3°10.531 11.790252 3.772447 32.773897 35.591195
2004-05-13 08:36:48 51°27.362 3°10.589 11.791028 3.772025 32.776769 36.164255
2004-05-13 08:37:47 51°27.397 3°10.647 11.790115 3.772342 32.774962 35.793452
2004-05-13 08:38:47 51°27.426 3°10.716 11.780256 3.772447 32.778067 34.883298
2004-05-13 08:39:48 51°27.451 3°10.794 11.787011 3.772131 32.780569 34.242819
2004-05-13 08:40:46 51°27.474 3°10.874 11.787422 3.772342 32.779828 34.20911
2004-05-13 08:41:48 51°27.492 3°10.945 11.788426 3.77329 32.783442 35.692324
2004-05-13 08:42:46 51°27.504 3°10.996 11.784729 3.77192 32.773664 36.46764
2004-05-13 08:43:47 51°27.514 3°11.066 11.779389 3.773185 32.78868 37.074409
2004-05-13 08:44:47 51°27.475 3°11.14 11.787787 3.771815 32.77334 37.950853
2004-05-13 08:45:46 51°27.414 3°11.114 11.781123 3.770234 32.761521 38.422785
2004-05-13 08:46:47 51°27.369 3°11.059 11.781945 3.770339 32.760456 36.231674
2004-05-13 08:47:47 51°27.345 3°10.996 11.786053 3.770444 32.762865 36.703606
2004-05-13 08:48:47 51°27.336 3°10.928 11.78158 3.771077 32.770373 35.658614
2004-05-13 08:49:47 51°27.339 3°10.863 11.775737 3.770655 32.765599 35.793452
2004-05-13 08:50:46 51°27.335 3°10.802 11.782401 3.770655 32.768379 35.119264
2004-05-13 08:51:48 51°27.319 3°10.743 11.784729 3.770971 32.770048 35.759742
2004-05-13 08:52:48 51°27.306 3°10.685 11.785414 3.770971 32.768658 35.89458
2004-05-13 08:53:47 51°27.297 3°10.625 11.776787 3.770234 32.7643 34.883298
2004-05-13 08:54:48 51°27.289 3°10.563 11.770898 3.770655 32.768379 34.377657
2004-05-13 08:55:48 51°27.281 3°10.502 11.773911 3.768969 32.754149 34.74846
2004-05-13 08:56:47 51°27.271 3°10.442 11.769893 3.77055 32.769445 33.939435
2004-05-13 08:57:48 51°27.257 3°10.383 11.770761 3.770339 32.771576 33.467503
2004-05-13 08:58:45 51°27.244 3°10.323 11.779708 3.770234 32.772642 34.074272
2004-05-13 08:59:47 51°27.231 3°10.26 11.765967 3.770655 32.774636 33.905725
2004-05-13 09:00:47 51°27.218 3°10.198 11.773272 3.770445 32.773987 34.074272
2004-05-13 09:01:47 51°27.203 3°10.139 11.768615 3.770445 32.778855 33.0967
2004-05-13 09:02:47 51°27.185 3°10.079 11.761812 3.770023 32.773384 33.804597
2004-05-13 09:03:47 51°27.165 3°10.023 11.765282 3.770129 32.777186 33.63605
2004-05-13 09:04:47 51°27.144 3°9.964 11.768158 3.770129 32.777882 34.040563
2004-05-13 09:05:47 51°27.123 3°9.908 11.76172 3.770129 32.777882 34.20911
2004-05-13 09:06:48 51°27.102 3°9.849 11.760579 3.770023 32.778253 34.546204
2004-05-13 09:07:48 51°27.081 3°9.792 11.760351 3.770445 32.780942 34.815879
2004-05-13 09:08:47 51°27.062 3°9.734 11.758707 3.768969 32.768747 33.838306
2004-05-13 09:09:47 51°27.043 3°9.677 11.7593 3.769812 32.774126 33.973144
2004-05-13 09:10:47 51°27.027 3°9.618 11.763547 3.768021 32.75887 33.568631
2004-05-13 09:11:47 51°27.011 3°9.56 11.768478 3.767283 32.749645 32.759606
2004-05-13 09:12:47 51°26.995 3°9.501 11.769026 3.765175 32.726468 33.501212
2004-05-13 09:13:46 51°26.976 3°9.447 11.76446 3.765597 32.729158 33.973144
2004-05-13 09:14:48 51°26.957 3°9.389 11.765008 3.765597 32.732631 34.141691
2004-05-13 09:15:48 51°26.941 3°9.332 11.765054 3.768442 32.758779 33.534922
2004-05-13 09:16:48 51°26.932 3°9.272 11.767017 3.76391 32.717007 33.265247
2004-05-13 09:17:48 51°26.933 3°9.212 11.763958 3.758324 32.662962 31.613486
2004-05-13 09:18:48 51°26.94 3°9.158 11.769619 3.764016 32.715944 29.860597
2004-05-13 09:19:47 51°26.95 3°9.126 11.771948 3.76254 32.70028 29.894306
2004-05-13 09:20:47 51°26.96 3°9.107 11.768113 3.755584 32.630223 29.69205
2004-05-13 09:21:47 51°26.968 3°9.099 11.771811 3.758008 32.655053 30.029144
2004-05-13 09:22:48 51°26.975 3°9.082 11.773865 3.759905 32.671324 30.130272
2004-05-13 09:23:48 51°26.969 3°9.035 11.773774 3.758535 32.653222 30.602204
2004-05-13 09:24:48 51°26.899 3°9.063 11.783862 3.764016 32.709698 30.534785
2004-05-13 09:25:47 51°26.776 3°9.241 11.796322 3.758746 32.64695 28.54593
2004-05-13 09:26:47 51°26.604 3°9.461 11.796596 3.750841 32.556044 26.422238
2004-05-13 09:27:49 51°26.427 3°9.692 11.778567 3.762856 32.683229 29.051571
2004-05-13 09:28:46 51°26.262 3°9.905 11.78902 3.756638 32.631416 31.343811
2004-05-13 09:29:48 51°26.082 3°10.128 11.788563 3.764226 32.70133 32.860734
2004-05-13 09:30:48 51°25.914 3°10.361 11.795364 3.7598 32.656448 33.737178
2004-05-13 09:31:48 51°25.752 3°10.604 11.800657 3.757586 32.630206 32.321383
2004-05-13 09:32:47 51°25.602 3°10.857 11.805266 3.758429 32.630747 32.961862
2004-05-13 09:33:48 51°25.492 3°11.182 11.814893 3.75316 32.570851 33.366375
2004-05-13 09:34:48 51°25.442 3°11.541 11.83688 3.749998 32.53273 33.534922
2004-05-13 09:35:48 51°25.394 3°11.904 11.839845 3.760115 32.618008 36.130546
2004-05-13 09:36:47 51°25.341 3°12.258 11.853935 3.758218 32.589339 34.411366
2004-05-13 09:37:47 51°25.286 3°12.622 11.85088 3.75885 32.589925 32.388802
2004-05-13 09:38:48 51°25.229 3°12.989 11.874268 3.762434 32.614157 33.602341
2004-05-13 09:39:48 51°25.195 3°13.246 11.879647 3.754529 32.533768 29.624631
2004-05-13 09:40:48 51°25.202 3°13.364 11.893821 3.757269 32.554001 28.073999
2004-05-13 09:41:47 51°25.219 3°13.445 11.90462 3.754318 32.516605 27.366101
2004-05-13 09:42:53 51°25.244 3°13.543 11.917512 3.752737 32.482826 29.523503
2004-05-13 09:43:53 51°25.263 3°13.636 11.918059 3.753369 32.4848 29.523503
2004-05-13 09:44:57 51°25.281 3°13.733 11.914005 3.753053 32.483813 29.186409
2004-05-13 09:45:57 51°25.29 3°13.827 11.917467 3.75221 32.475005 29.388665
2004-05-13 09:46:57 51°25.292 3°13.911 11.921202 3.760114 32.546347 28.309965
2004-05-13 09:47:57 51°25.29 3°13.989 11.929856 3.753791 32.481314 27.871742
2004-05-13 09:48:57 51°25.288 3°14.063 11.954673 3.749048 32.426057 32.624768
2004-05-13 09:49:57 51°25.287 3°14.134 11.960455 3.756109 32.478955 38.018272
2004-05-13 09:50:57 51°25.286 3°14.204 11.967374 3.759903 32.507929 43.142101
2004-05-13 09:51:57 51°25.286 3°14.273 11.974929 3.76043 32.504773 44.996118
2004-05-13 09:52:57 51°25.284 3°14.342 11.983349 3.750839 32.409099 43.512905
2004-05-13 09:53:57 51°25.282 3°14.41 11.982348 3.754106 32.436416 41.085828
2004-05-13 09:54:57 51°25.28 3°14.48 11.985579 3.755687 32.450251 37.917144
2004-05-13 09:55:57 51°25.278 3°14.55 11.984805 3.748204 32.380349 39.400358
2004-05-13 09:56:57 51°25.274 3°14.619 11.989037 3.75105 32.400879 39.332939
2004-05-13 09:57:55 51°25.27 3°14.687 11.988673 3.75516 32.439712 39.366648
2004-05-13 09:58:57 51°25.269 3°14.759 11.995771 3.755055 32.433914 39.501486
2004-05-13 09:59:57 51°25.269 3°14.826 12.001777 3.746202 32.346097 39.737452
2004-05-13 10:01:02 51°25.271 3°14.899 12.004916 3.756425 32.437516 40.007127
2004-05-13 10:02:02 51°25.273 3°14.967 12.005507 3.752314 32.395967 40.580187
2004-05-13 10:03:02 51°25.276 3°15.035 12.01788 3.753263 32.400304 40.141965
2004-05-13 10:04:02 51°25.278 3°15.101 12.020609 3.747255 32.337828 38.254238
2004-05-13 10:05:01 51°25.278 3°15.166 12.01788 3.752314 32.385053 38.793589
2004-05-13 10:06:06 51°25.28 3°15.236 12.018244 3.751576 32.380012 39.771161
2004-05-13 10:07:11 51°25.284 3°15.306 12.023156 3.754211 32.401229 39.096973
2004-05-13 10:08:10 51°25.287 3°15.369 12.021064 3.745147 32.316905 38.389076
2004-05-13 10:09:11 51°25.29 3°15.433 12.029159 3.750733 32.364417 37.344084
2004-05-13 10:10:11 51°25.293 3°15.494 12.030296 3.751892 32.372143 34.849589
2004-05-13 10:11:13 51°25.298 3°15.556 12.029659 3.754843 32.400482 35.557486
2004-05-13 10:12:14 51°25.301 3°15.617 12.027931 3.744093 32.297944 34.512494
2004-05-13 10:13:14 51°25.305 3°15.676 12.031933 3.750733 32.362373 34.78217
2004-05-13 10:14:13 51°25.31 3°15.735 12.024748 3.747782 32.334038 34.883298
2004-05-13 10:15:14 51°25.315 3°15.793 12.032024 3.753579 32.388336 33.366375
2004-05-13 10:16:14 51°25.318 3°15.851 12.032342 3.744093 32.297265 31.37752
2004-05-13 10:17:15 51°25.322 3°15.911 12.039027 3.749257 32.340036 30.197691
2004-05-13 10:18:14 51°25.325 3°15.969 12.05303 3.750944 32.350097 28.107708
2004-05-13 10:19:14 51°25.327 3°16.033 12.056348 3.757794 32.411768 26.219982
2004-05-13 10:20:13 51°25.324 3°16.101 12.055257 3.751787 32.348662 25.107571
2004-05-13 10:21:14 51°25.316 3°16.175 12.051075 3.750417 32.341637 23.253554
2004-05-13 10:22:14 51°25.29 3°16.26 12.056757 3.757056 32.403323 22.545657
2004-05-13 10:23:14 51°25.213 3°16.279 12.021064 3.75811 32.427083 24.669349
2004-05-13 10:24:14 51°25.163 3°16.179 12.019245 3.759691 32.451829 23.725486
2004-05-13 10:25:13 51°25.155 3°16.101 12.024384 3.76064 32.464359 21.197281
2004-05-13 10:26:14 51°25.156 3°16.049 12.023884 3.760851 32.466385 20.523093
2004-05-13 10:27:13 51°25.162 3°16.006 12.029159 3.761378 32.466663 20.388255
2004-05-13 10:28:14 51°25.243 3°15.91 12.046756 3.762326 32.472358 21.028734
2004-05-13 10:29:14 51°25.355 3°16.037 12.054075 3.762326 32.461425 22.275982
2004-05-13 10:30:14 51°25.295 3°16.215 12.048847 3.760007 32.424831 24.06258
2004-05-13 10:31:14 51°25.229 3°16.229 12.030114 3.759059 32.433463 24.63564
2004-05-13 10:32:14 51°25.197 3°16.159 12.008009 3.761378 32.45778 21.837759
2004-05-13 10:33:14 51°25.181 3°16.075 12.005325 3.760956 32.483814 23.691777
2004-05-13 10:34:14 51°25.177 3°15.988 12.013968 3.761799 32.481655 21.972597
2004-05-13 10:35:14 51°25.181 3°15.9 12.023884 3.762748 32.482562 21.062443
2004-05-13 10:36:14 51°25.182 3°15.815 12.029568 3.76475 32.493595 21.568084
2004-05-13 10:37:14 51°25.179 3°15.732 12.002596 3.76591 32.509523 25.984016
2004-05-13 10:38:15 51°25.174 3°15.65 12.000912 3.763907 32.513556 29.422375
2004-05-13 10:39:14 51°25.17 3°15.567 12.00851 3.763064 32.504079 28.781896
2004-05-13 10:40:14 51°25.167 3°15.482 12.012285 3.763486 32.499916 27.972871
2004-05-13 10:41:14 51°25.164 3°15.395 12.023202 3.76338 32.491375 26.624494
2004-05-13 10:42:13 51°25.16 3°15.309 12.033707 3.763486 32.483496 25.343537
2004-05-13 10:43:14 51°25.157 3°15.222 12.038436 3.763169 32.477723 25.613212
2004-05-13 10:44:13 51°25.151 3°15.137 12.06403 3.76338 32.464715 25.444665
2004-05-13 10:45:14 51°25.146 3°15.049 12.062212 3.765382 32.473697 24.500802
2004-05-13 10:46:14 51°25.14 3°14.963 12.055121 3.765171 32.474405 26.658204
2004-05-13 10:47:13 51°25.134 3°14.88 12.059212 3.764539 32.469017 29.557212
2004-05-13 10:48:21 51°25.129 3°14.783 12.069802 3.764223 32.461203 30.366238
2004-05-13 10:49:20 51°25.123 3°14.698 12.066394 3.765382 32.466869 31.208973
2004-05-13 10:50:19 51°25.118 3°14.614 12.064167 3.766225 32.477693 31.984289
2004-05-13 10:51:21 51°25.115 3°14.527 12.040436 3.767595 32.496311 30.973007
2004-05-13 10:52:21 51°25.111 3°14.444 12.032251 3.767596 32.514091 29.826888
2004-05-13 10:53:22 51°25.107 3°14.359 12.02975 3.768439 32.529037 29.456084
2004-05-13 10:54:22 51°25.102 3°14.276 12.014378 3.769598 32.537437 28.54593
2004-05-13 10:55:22 51°25.097 3°14.194 11.999821 3.77002 32.56205 30.096563
2004-05-13 10:56:22 51°25.094 3°14.111 11.979799 3.769915 32.570641 30.26511
2004-05-13 10:57:22 51°25.091 3°14.031 11.978434 3.76865 32.573577 31.41123
2004-05-13 10:58:25 51°25.089 3°13.945 11.980072 3.768334 32.572595 29.388665
2004-05-13 10:59:25 51°25.087 3°13.866 11.968785 3.768229 32.574328 29.051571
2004-05-13 11:00:25 51°25.083 3°13.784 11.974929 3.767913 32.57678 26.927879
2004-05-13 11:01:25 51°25.079 3°13.7 11.975658 3.76844 32.580478 23.961452
2004-05-13 11:02:30 51°25.074 3°13.609 11.979845 3.769283 32.582409 22.141144
2004-05-13 11:03:30 51°25.071 3°13.526 11.974929 3.769494 32.586499 21.669212
2004-05-13 11:04:29 51°25.067 3°13.441 11.976704 3.769177 32.583456 21.433247
2004-05-13 11:05:31 51°25.065 3°13.35 11.967374 3.769283 32.586531 22.714204
2004-05-13 11:06:31 51°25.062 3°13.262 11.978297 3.769283 32.587219 24.703059
2004-05-13 11:07:30 51°25.059 3°13.177 11.973564 3.769388 32.587546 27.534648
2004-05-13 11:08:30 51°25.056 3°13.088 11.974065 3.769388 32.586859 28.849315
2004-05-13 11:09:30 51°25.054 3°13.007 11.971288 3.769915 32.59193 30.029144
2004-05-13 11:10:29 51°25.053 3°12.944 11.970833 3.769388 32.58892 30.737042
2004-05-13 11:11:30 51°25.051 3°12.893 11.96487 3.769494 32.591309 31.040426
2004-05-13 11:12:31 51°25.054 3°12.708 11.966782 3.769178 32.590328 31.883161
2004-05-13 11:13:29 51°25.113 3°12.386 11.943153 3.770548 32.593893 32.759606
2004-05-13 11:14:29 51°25.055 3°12.047 12.021064 3.768124 32.580183 28.984153
2004-05-13 11:15:30 51°24.894 3°11.791 12.066257 3.758637 32.421227 18.230853
2004-05-13 11:16:29 51°24.731 3°11.549 12.079391 3.757583 32.392709 20.489383
2004-05-13 11:17:30 51°24.597 3°11.242 12.036344 3.75674 32.398925 19.57923
2004-05-13 11:18:29 51°24.468 3°10.941 12.026203 3.754211 32.388273 19.478101
2004-05-13 11:19:29 51°24.335 3°10.637 12.011649 3.747993 32.339465 19.208426
2004-05-13 11:20:31 51°24.202 3°10.322 12.074529 3.745674 32.298844 16.208289
2004-05-13 11:21:31 51°24.071 3°10.022 12.12073 3.741774 32.218729 9.567537
2004-05-13 11:22:30 51°23.921 3°9.752 12.122819 3.736399 32.144279 9.466409
2004-05-13 11:23:29 51°23.757 3°9.506 12.136078 3.732289 32.105612 9.634956
2004-05-13 11:24:31 51°23.577 3°9.269 12.169259 3.727862 32.039718 10.646238
2004-05-13 11:25:29 51°23.408 3°9.039 12.185186 3.722065 31.962853 11.522683
2004-05-13 11:26:31 51°23.229 3°8.794 12.188316 3.717639 31.901189 12.095742
2004-05-13 11:27:30 51°23.058 3°8.562 12.195348 3.712475 31.85924 14.657657
2004-05-13 11:28:31 51°22.881 3°8.316 12.216937 3.710683 31.824811 13.3767
2004-05-13 11:29:30 51°22.716 3°8.064 12.222287 3.708154 31.79536 12.196871
2004-05-13 11:30:29 51°22.556 3°7.801 12.231854 3.705941 31.762956 10.983332
2004-05-13 11:31:31 51°22.386 3°7.532 12.246633 3.703201 31.732192 10.5114
2004-05-13 11:32:29 51°22.227 3°7.278 12.252616 3.697826 31.6631 9.904631
2004-05-13 11:33:31 51°22.059 3°6.998 12.249443 3.690554 31.601134 10.646238
2004-05-13 11:34:30 51°21.896 3°6.735 12.253522 3.686128 31.555696 11.185589
2004-05-13 11:35:31 51°21.727 3°6.468 12.268069 3.685074 31.536437 11.792358
2004-05-13 11:36:29 51°21.583 3°6.19 12.258825 3.683177 31.516413 11.724939
2004-05-13 11:37:31 51°21.457 3°5.859 12.253295 3.680016 31.491599 12.297999
2004-05-13 11:38:30 51°21.337 3°5.544 12.246179 3.680122 31.497209 12.297999
2004-05-13 11:39:30 51°21.214 3°5.223 12.254066 3.681492 31.512881 12.028324
2004-05-13 11:40:31 51°21.099 3°4.889 12.246361 3.684969 31.534776 11.286717
2004-05-13 11:41:30 51°20.988 3°4.568 12.213218 3.679279 31.501696 12.23058
2004-05-13 11:42:31 51°20.875 3°4.235 12.207232 3.669268 31.424813 15.095879
2004-05-13 11:43:30 51°20.763 3°3.915 12.200292 3.662313 31.373701 16.74764
2004-05-13 11:44:30 51°20.651 3°3.591 12.18818 3.659784 31.350274 16.848768
2004-05-13 11:45:29 51°20.541 3°3.271 12.189269 3.655885 31.317084 17.725212
2004-05-13 11:46:31 51°20.423 3°2.937 12.192671 3.65441 31.295175 18.97246
2004-05-13 11:47:30 51°20.336 3°2.62 12.176883 3.653988 31.289198 19.54552
2004-05-13 11:48:30 51°20.271 3°2.44 12.216619 3.65578 31.318048 20.051161
2004-05-13 11:49:29 51°20.251 3°2.36 12.217163 3.673378 31.460656 14.758785
2004-05-13 11:50:31 51°20.236 3°2.319 12.223512 3.676961 31.494115 13.107024
2004-05-13 11:51:31 51°20.223 3°2.276 12.228454 3.677171 31.488218 12.938477
2004-05-13 11:52:29 51°20.208 3°2.196 12.231718 3.677593 31.488938 13.005896
2004-05-13 11:53:31 51°20.189 3°2.098 12.230177 3.676223 31.481163 12.871059
2004-05-13 11:54:29 51°20.164 3°2.019 12.229315 3.676012 31.476523 13.34299
2004-05-13 11:55:29 51°20.134 3°1.946 12.225552 3.674431 31.464108 13.477828
2004-05-13 11:56:31 51°20.11 3°1.867 12.226958 3.673588 31.455424 13.646375
2004-05-13 11:57:31 51°20.094 3°1.788 12.234801 3.673061 31.447777 13.949759
2004-05-13 11:58:30 51°20.085 3°1.711 12.22859 3.672429 31.439786 14.219435
2004-05-13 11:59:31 51°20.076 3°1.626 12.234212 3.672007 31.433145 14.590238
2004-05-13 12:00:31 51°20.064 3°1.538 12.232398 3.671481 31.432732 14.691366
2004-05-13 12:01:31 51°20.049 3°1.452 12.225144 3.671481 31.432074 15.129589
2004-05-13 12:02:31 51°20.032 3°1.366 12.234166 3.671586 31.430448 15.298136
2004-05-13 12:03:31 51°20.014 3°1.283 12.23471 3.67127 31.428097 15.466683
2004-05-13 12:04:30 51°19.996 3°1.202 12.233668 3.670954 31.423117 15.534101
2004-05-13 12:05:31 51°19.979 3°1.118 12.230041 3.670216 31.417411 15.534101
2004-05-13 12:06:31 51°19.962 3°1.034 12.234892 3.669689 31.415024 15.837486
2004-05-13 12:07:31 51°19.947 3°0.949 12.23199 3.669268 31.41167 16.107161
2004-05-13 12:08:31 51°19.931 3°0.864 12.229587 3.669373 31.411359 16.343127
2004-05-13 12:09:31 51°19.914 3°0.777 12.234166 3.669584 31.411394 16.71393
2004-05-13 12:10:31 51°19.897 3°0.69 12.232036 3.668951 31.405377 17.017315
2004-05-13 12:11:31 51°19.881 3°0.604 12.231673 3.668846 31.402405 16.781349
2004-05-13 12:12:31 51°19.864 3°0.517 12.230403 3.668741 31.401402 17.118443
2004-05-13 12:13:31 51°19.848 3°0.429 12.228046 3.667792 31.398943 17.624084
2004-05-13 12:14:31 51°19.833 3°0.342 12.225915 3.667582 31.395624 17.725212
2004-05-13 12:15:31 51°19.818 3°0.256 12.223194 3.667266 31.398525 17.792631
2004-05-13 12:16:29 51°19.803 3°0.171 12.220972 3.66716 31.397522 18.028597
2004-05-13 12:17:31 51°19.786 3°0.079 12.217435 3.667476 31.401188 18.129725
2004-05-13 12:18:31 51°19.767 2°59.991 12.225507 3.667371 31.400185 18.096016
2004-05-13 12:19:31 51°19.75 2°59.904 12.225507 3.667687 31.400567 17.657794
2004-05-13 12:20:31 51°19.733 2°59.817 12.230902 3.668319 31.405928 17.3207
2004-05-13 12:21:31 51°19.718 2°59.733 12.231492 3.668108 31.403265 17.388118
2004-05-13 12:22:31 51°19.705 2°59.648 12.22732 3.668635 31.406966 17.253281
2004-05-13 12:23:31 51°19.688 2°59.547 12.226187 3.668741 31.408626 17.185862
2004-05-13 12:24:31 51°19.676 2°59.377 12.227728 3.668952 31.411945 17.3207
2004-05-13 12:25:31 51°19.678 2°59.254 12.224736 3.669268 31.416926 17.388118
2004-05-13 12:26:31 51°19.683 2°59.172 12.224917 3.670111 31.423636 17.28699
2004-05-13 12:27:31 51°19.685 2°59.109 12.221517 3.670532 31.42962 17.421828
2004-05-13 12:28:31 51°19.68 2°58.967 12.225325 3.670848 31.433945 17.489247
2004-05-13 12:29:31 51°19.737 2°58.724 12.248446 3.673272 31.435978 17.556665
2004-05-13 12:30:30 51°19.868 2°58.755 12.244865 3.675485 31.45572 17.051024
2004-05-13 12:31:31 51°19.893 2°58.849 12.226323 3.673799 31.45151 16.545383
2004-05-13 12:32:31 51°19.898 2°58.924 12.230358 3.671902 31.436086 16.309418
2004-05-13 12:33:31 51°19.904 2°58.997 12.241238 3.672324 31.436811 15.567811
2004-05-13 12:34:31 51°19.91 2°59.07 12.240377 3.672324 31.432211 15.466683
2004-05-13 12:35:31 51°19.917 2°59.139 12.244638 3.672113 31.428234 15.500392
2004-05-13 12:36:31 51°19.925 2°59.206 12.246678 3.672218 31.425952 15.466683
2004-05-13 12:37:31 51°19.932 2°59.27 12.243732 3.671375 31.419245 15.668939
2004-05-13 12:38:31 51°19.937 2°59.33 12.244004 3.670637 31.41157 15.871195
2004-05-13 12:39:31 51°19.942 2°59.388 12.247041 3.669478 31.401856 15.534101
2004-05-13 12:40:31 51°19.947 2°59.447 12.24908 3.670216 31.406247 15.668939
2004-05-13 12:41:31 51°19.952 2°59.506 12.245817 3.669373 31.39954 15.668939
2004-05-13 12:42:31 51°19.958 2°59.564 12.24559 3.670216 31.40756 15.365554
2004-05-13 12:43:31 51°19.962 2°59.622 12.247992 3.670216 31.40756 15.230717
2004-05-13 12:44:31 51°19.968 2°59.679 12.250984 3.670321 31.40725 15.298136
2004-05-13 12:45:31 51°19.973 2°59.735 12.253205 3.670743 31.40929 15.331845
2004-05-13 12:46:31 51°19.98 2°59.792 12.250757 3.671164 31.410674 15.331845
2004-05-13 12:47:31 51°19.988 2°59.852 12.261408 3.671164 31.409362 15.298136
2004-05-13 12:48:31 51°19.998 2°59.915 12.261906 3.672007 31.414098 15.06217
2004-05-13 12:49:31 51°20.008 2°59.977 12.261906 3.67285 31.416865 14.859913
2004-05-13 12:50:31 51°20.016 3°0.04 12.268522 3.67285 31.417521 14.48911
2004-05-13 12:51:31 51°20.026 3°0.104 12.275137 3.544825 30.199567 14.354272
2004-05-13 12:52:31 51°20.036 3°0.168 12.276134 3.598666 30.702903 13.848631
2004-05-13 12:53:31 51°20.045 3°0.234 12.285467 3.544193 30.185397 13.713794
2004-05-13 12:54:35 51°20.055 3°0.303 12.281707 3.468022 29.464017 13.34299
2004-05-13 12:55:36 51°20.064 3°0.368 12.281843 3.560419 30.338845 13.107024
2004-05-13 12:56:35 51°20.074 3°0.432 12.285829 3.386803 28.699538 12.904768
2004-05-13 12:57:35 51°20.082 3°0.497 12.287097 3.680437 31.469308 12.533965
2004-05-13 12:58:35 51°20.091 3°0.56 12.291038 3.680859 31.472659 12.533965
2004-05-13 12:59:35 51°20.1 3°0.625 12.286191 3.681491 31.478012 12.399127
2004-05-13 13:00:35 51°20.107 3°0.692 12.292669 3.681807 31.481675 11.960905
2004-05-13 13:01:46 51°20.096 3°0.766 12.296111 3.684126 31.500429 11.219298
2004-05-13 13:02:51 51°20.07 3°0.827 12.286916 3.684969 31.50976 11.151879
2004-05-13 13:03:51 51°20.018 3°0.851 12.272736 3.684126 31.510295 11.286717
2004-05-13 13:04:49 51°19.967 3°0.814 12.262948 3.682124 31.501122 12.095742
2004-05-13 13:05:50 51°19.932 3°0.76 12.275273 3.681281 31.493103 12.297999
2004-05-13 13:06:49 51°19.908 3°0.71 12.278762 3.680227 31.477819 12.500255
2004-05-13 13:07:50 51°19.889 3°0.664 12.284742 3.679489 31.468175 12.601383
2004-05-13 13:08:49 51°19.874 3°0.605 12.285467 3.6797 31.462952 12.871059
2004-05-13 13:09:51 51°19.935 3°0.443 12.296338 3.679278 31.453692 13.140734
2004-05-13 13:10:51 51°20.045 3°0.283 12.302815 3.679278 31.451723 13.140734
2004-05-13 13:11:50 51°20.107 3°0.187 12.294028 3.681912 31.47742 12.972187
2004-05-13 13:12:51 51°20.144 3°0.133 12.289544 3.682861 31.493009 12.635093
2004-05-13 13:13:51 51°20.177 3°0.113 12.295432 3.684758 31.507756 12.095742
2004-05-13 13:14:50 51°20.187 3°0.118 12.286418 3.687603 31.537443 11.185589
2004-05-13 13:15:50 51°20.184 3°0.122 12.29285 3.688236 31.545432 11.08446
2004-05-13 13:16:50 51°20.177 3°0.122 12.281843 3.688657 31.5501 11.11817
2004-05-13 13:17:55 51°20.167 3°0.118 12.282658 3.688236 31.55861 11.219298
2004-05-13 13:18:55 51°20.158 3°0.112 12.284334 3.690765 31.566192 11.08446
2004-05-13 13:19:57 51°20.151 3°0.106 12.275137 3.689816 31.563761 10.848494
2004-05-13 13:20:55 51°20.15 3°0.106 12.276134 3.689816 31.563761 10.983332
2004-05-13 13:21:57 51°20.157 3°0.106 12.294345 3.689606 31.563733 11.017042
2004-05-13 13:22:56 51°20.177 3°0.09 12.294526 3.692978 31.581306 10.713657
2004-05-13 13:23:57 51°20.196 2°59.997 12.314317 3.69656 31.605487 10.848494
2004-05-13 13:24:57 51°20.138 2°59.763 12.30209 3.698879 31.617636 10.713657
2004-05-13 13:25:55 51°20.054 2°59.444 12.294979 3.691608 31.561691 11.69123
2004-05-13 13:26:57 51°19.959 2°59.074 12.330163 3.686128 31.50237 12.668802
2004-05-13 13:28:01 51°19.858 2°58.69 12.320203 3.683177 31.465799 13.781212
2004-05-13 13:29:01 51°19.767 2°58.328 12.308747 3.679172 31.435632 14.859913
2004-05-13 13:30:05 51°19.666 2°57.942 12.308883 3.677486 31.420926 14.859913
2004-05-13 13:31:06 51°19.571 2°57.574 12.313321 3.676643 31.409642 15.298136
2004-05-13 13:32:05 51°19.481 2°57.218 12.311509 3.677908 31.418376 15.736358
2004-05-13 13:33:05 51°19.386 2°56.855 12.299373 3.679699 31.445229 16.140871
2004-05-13 13:34:05 51°19.292 2°56.492 12.30766 3.678962 31.443468 16.17458
2004-05-13 13:35:09 51°19.19 2°56.104 12.307887 3.678646 31.433905 15.331845
2004-05-13 13:36:07 51°19.109 2°55.744 12.292171 3.680016 31.450857 15.264426
2004-05-13 13:37:07 51°19.023 2°55.373 12.281072 3.678435 31.447648 14.691366
2004-05-13 13:38:09 51°18.934 2°54.989 12.304988 3.677065 31.439878 14.253144
2004-05-13 13:39:09 51°18.848 2°54.618 12.283247 3.677803 31.436389 13.275571
2004-05-13 13:40:09 51°18.762 2°54.247 12.273008 3.678435 31.454871 12.668802
2004-05-13 13:41:09 51°18.677 2°53.876 12.271694 3.680648 31.477226 12.702512
2004-05-13 13:42:09 51°18.588 2°53.507 12.279532 3.681807 31.49351 12.466546
2004-05-13 13:43:07 51°18.503 2°53.148 12.261997 3.679173 31.470427 12.635093
2004-05-13 13:44:09 51°18.411 2°52.766 12.272011 3.682861 31.506822 13.34299
2004-05-13 13:45:09 51°18.292 2°52.422 12.273733 3.690554 31.584628 18.3994
2004-05-13 13:46:09 51°18.137 2°52.114 12.277357 3.698458 31.640028 21.500665
2004-05-13 13:47:07 51°17.949 2°51.879 12.295568 3.708364 31.735618 25.006443
2004-05-13 13:48:09 51°17.739 2°51.65 12.275817 3.718375 31.823622 28.54593
2004-05-13 13:49:09 51°17.521 2°51.475 12.29969 3.725542 31.887197 30.568494
2004-05-13 13:50:09 51°17.288 2°51.337 12.262223 3.738294 32.029375 34.006853
2004-05-13 13:51:15 51°17.029 2°51.235 12.290268 3.737978 32.032383 34.681042
2004-05-13 13:52:14 51°16.794 2°51.154 12.294119 3.750308 32.123807 25.613212
2004-05-13 13:53:13 51°16.559 2°51.127 12.311645 3.754102 32.159974 13.713794
2004-05-13 13:54:15 51°16.311 2°51.105 12.333649 3.744617 32.057522 13.713794
2004-05-13 13:55:15 51°16.069 2°51.075 12.362569 3.737345 31.962922 15.298136
2004-05-13 13:56:19 51°15.813 2°51.084 12.358542 3.724171 31.83429 19.309554
2004-05-13 13:57:19 51°15.576 2°51.095 12.331884 3.728386 31.869065 16.579093
2004-05-13 13:58:19 51°15.338 2°51.102 12.329575 3.716794 31.782701 15.163298
2004-05-13 13:59:19 51°15.131 2°51.162 12.406083 3.711419 31.707781 15.871195
2004-05-13 14:00:19 51°15.022 2°51.193 12.400657 3.696876 31.530222 19.511811
2004-05-13 14:01:18 51°14.946 2°51.17 12.409701 3.687602 31.446865 21.399537
2004-05-13 14:02:17 51°14.878 2°51.117 12.396225 3.68307 31.400636 22.714204
2004-05-13 14:03:19 51°14.811 2°51.046 12.390798 3.680752 31.382578 23.118717
2004-05-13 14:04:17 51°14.757 2°50.968 12.388762 3.679171 31.370206 23.658067
2004-05-13 14:05:26 51°14.701 2°50.867 12.396858 3.678118 31.360869 23.455811
2004-05-13 14:06:27 51°14.659 2°50.778 12.38926 3.678961 31.366902 23.354683
2004-05-13 14:07:25 51°14.621 2°50.695 12.379535 3.680015 31.386035 23.422101
2004-05-13 14:08:27 51°14.585 2°50.61 12.386727 3.679909 31.38961 23.48952
2004-05-13 14:09:27 51°14.553 2°50.529 12.402963 3.680541 31.381233 23.287264
2004-05-13 14:10:27 51°14.521 2°50.451 12.401064 3.68149 31.384347 23.085007
2004-05-13 14:11:26 51°14.491 2°50.374 12.399436 3.682017 31.392606 22.983879
2004-05-13 14:12:27 51°14.458 2°50.295 12.407666 3.6817 31.386997 22.95017
2004-05-13 14:13:27 51°14.425 2°50.219 12.413408 3.682227 31.386115 22.95017
2004-05-13 14:14:26 51°14.392 2°50.143 12.417658 3.683703 31.39422 22.849042
2004-05-13 14:15:26 51°14.358 2°50.067 12.427107 3.685178 31.402323 22.849042
2004-05-13 14:16:25 51°14.325 2°49.99 12.431808 3.686442 31.409733 22.882751
2004-05-13 14:17:26 51°14.291 2°49.912 12.438226 3.68718 31.414109 22.781623
2004-05-13 14:18:27 51°14.259 2°49.832 12.444011 3.687917 31.411957 22.882751
2004-05-13 14:19:26 51°14.226 2°49.755 12.43565 3.688655 31.41829 22.747913
2004-05-13 14:20:27 51°14.194 2°49.676 12.433751 3.688971 31.427161 22.781623
2004-05-13 14:21:25 51°14.166 2°49.6 12.437819 3.690025 31.435184 22.545657
2004-05-13 14:22:30 51°14.139 2°49.491 12.454314 3.690552 31.440828 22.545657
2004-05-13 14:23:30 51°14.129 2°49.383 12.447807 3.6915 31.434135 22.781623
2004-05-13 14:24:31 51°14.121 2°49.295 12.447988 3.692027 31.445655 22.714204
2004-05-13 14:25:31 51°14.11 2°49.221 12.451287 3.692027 31.441736 22.410819
2004-05-13 14:26:30 51°14.099 2°49.156 12.447355 3.691817 31.442353 22.309691
2004-05-13 14:27:31 51°14.107 2°49.065 12.451829 3.691922 31.446617 22.478238
2004-05-13 14:28:30 51°14.177 2°49.061 12.4657 3.69266 31.445111 22.444529
2004-05-13 14:29:35 51°14.269 2°49.191 12.458697 3.692449 31.43528 22.95017
2004-05-13 14:30:34 51°14.362 2°49.375 12.4427 3.690447 31.427421 23.422101
2004-05-13 14:31:34 51°14.451 2°49.595 12.767211 3.690236 31.42412 10.882204
2004-05-13 14:32:35 51°14.547 2°49.82 12.858266 3.690341 31.423812 10.342853
2004-05-13 14:33:35 51°14.644 2°50.048 12.985112 3.690341 31.42316 10.039469
2004-05-13 14:34:35 51°14.745 2°50.283 13.090462 3.690446 31.422852 9.837212
2004-05-13 14:35:34 51°14.852 2°50.53 13.197523 3.690657 31.420932 9.870922
2004-05-13 14:36:33 51°14.958 2°50.795 13.303297 3.691184 31.416134 9.837212
2004-05-13 14:37:35 51°14.995 2°51.114 13.412557 3.691816 31.40973 9.904631
2004-05-13 14:38:35 51°14.986 2°51.439 13.51359 3.692448 31.409195 9.736084
2004-05-13 14:39:34 51°14.974 2°51.759 13.615314 3.693291 31.419776 9.803503
2004-05-13 14:40:34 51°14.941 2°52.086 13.709966 3.694134 31.409506 9.837212
2004-05-13 14:41:35 51°14.896 2°52.414 13.808958 3.695293 31.411348 9.870922
2004-05-13 14:42:33 51°14.839 2°52.72 13.896352 3.696558 31.417441 10.005759
2004-05-13 14:43:35 51°14.781 2°53.052 13.993303 3.697717 31.422537 9.904631
2004-05-13 14:44:35 51°14.72 2°53.373 14.079796 3.698876 31.425027 9.904631
2004-05-13 14:45:35 51°14.671 2°53.702 14.169129 3.700035 31.42947 9.904631
2004-05-13 14:46:35 51°14.62 2°54.042 14.255748 3.700984 31.43192 9.97205
2004-05-13 14:47:34 51°14.552 2°54.363 14.339225 3.702248 31.437356 9.870922
2004-05-13 14:48:34 51°14.47 2°54.676 14.421853 3.703196 31.439155 9.904631
2004-05-13 14:49:35 51°14.386 2°54.974 14.504073 3.704566 31.445582 9.97205
2004-05-13 14:50:35 51°14.286 2°55.227 14.577526 3.70562 31.449025 9.904631
2004-05-13 14:51:35 51°14.196 2°55.374 14.649194 3.706674 31.452466 9.938341
2004-05-13 14:52:35 51°14.098 2°55.462 14.727206 3.707622 31.454262 9.904631
2004-05-13 14:53:35 51°13.986 2°55.54 14.825196 3.708676 31.458353 9.938341
2004-05-13 14:54:34 51°13.867 2°55.617 14.880043 3.70973 31.461142 9.938341
2004-05-13 14:55:35 51°13.755 2°55.712 14.949301 3.710889 31.465574 9.938341